Flag for Germany Weather past 2 weeks in Königs Wusterhausen, Brandenburg, Germany

Now
88 °F

Passing clouds.


Feels Like: 86 °F
Forecast: 73 / 96 °F
Wind: 8 mph from Southeast

Location: Berlin-Schoenefeld

Current Time: Jul 3, 2015 at 1:18:40 PM

Latest Report: Jul 3, 2015 at 12:50 PM


Visibility: N/A

Pressure: 30.27 "Hg

Humidity: 31%

Dew point: 54 °F

Location of Königs WusterhausenLocation

Historic Weather in Königs Wusterhausen — Graph

°F

Königs Wusterhausen temperature yesterday

Maximum temperature yesterday: 86 °F (at 4:20 PM)
Minimum temperature yesterday: 57 °F (at 3:20 AM)
Average temperature yesterday: 74 °F

Past Weeks' High & Low Weather Summary

 TemperatureHumidityPressure
High86 °F (Jul 2, 4:20 PM)100% (Jun 22, 6:50 AM)30.27 "Hg (Jun 22, 6:50 AM)
Low48 °F (Jun 24, 2:20 AM)28% (Jul 1, 6:20 PM)29.62 "Hg (Jun 23, 12:20 AM)
Average63 °F69%30.04 "Hg
* Reported Jun 18 12:20 PM — Jul 3 12:20 PM, Königs Wusterhausen, Weather by CustomWeather, © 2015

Note: Actual official high and low records may vary slightly from our data, if they occured in-between our weather recording intervals... More about our weather records

Advertising

Königs Wusterhausen weather history for previous 24 hours

 ConditionsComfort  
Time TempWeatherWind HumidityBarometerVisibility
12:20 PM
Fri, Jul 3
86 °FSunny.7 mph31%30.27 "Hg10 mi
11:50 AM86 °FPassing clouds.8 mph31%30.27 "HgN/A
11:20 AM84 °FPassing clouds.8 mph37%30.27 "HgN/A
10:50 AM84 °FPassing clouds.9 mph37%30.27 "HgN/A
10:20 AM82 °FPassing clouds.10 mph40%30.27 "HgN/A
9:50 AM81 °FPassing clouds.8 mph45%30.27 "HgN/A
9:20 AM79 °FPassing clouds.9 mph45%30.27 "HgN/A
8:50 AM75 °FSunny.10 mph50%30.27 "Hg10 mi
8:20 AM73 °FPassing clouds.8 mph53%30.27 "HgN/A
7:50 AM72 °FPassing clouds.7 mph57%30.27 "HgN/A
7:20 AM70 °FPassing clouds.6 mph57%30.27 "HgN/A
6:50 AM68 °FPassing clouds.5 mph60%30.27 "HgN/A
6:20 AM64 °FSunny.6 mph68%30.27 "Hg10 mi
5:50 AM64 °FSunny.6 mph68%30.27 "Hg10 mi
5:20 AM63 °FClear.3 mph68%30.24 "Hg10 mi
4:50 AM63 °FClear.6 mph68%30.24 "Hg10 mi
4:20 AM63 °FClear.6 mph68%30.24 "Hg10 mi
3:50 AM63 °FClear.5 mph68%30.27 "Hg10 mi
3:20 AM64 °FClear.6 mph64%30.27 "Hg10 mi
2:50 AM64 °FClear.3 mph64%30.27 "Hg10 mi
2:20 AM64 °FClear.5 mph60%30.27 "Hg10 mi
1:50 AM66 °FClear.5 mph60%30.27 "Hg10 mi
1:20 AM68 °FClear.8 mph53%30.24 "Hg10 mi
12:50 AM70 °FClear.7 mph50%30.27 "Hg10 mi
12:20 AM70 °FClear.8 mph50%30.24 "Hg10 mi
11:50 PM
Thu, Jul 2
72 °FClear.9 mph50%30.24 "Hg10 mi
11:20 PM72 °FClear.8 mph50%30.27 "Hg10 mi
10:50 PM72 °FClear.7 mph50%30.24 "Hg10 mi
10:20 PM72 °FSunny.7 mph50%30.24 "Hg10 mi
9:50 PM73 °FSunny.7 mph47%30.24 "Hg10 mi
9:20 PM77 °FSunny.5 mph42%30.24 "Hg10 mi
8:50 PM79 °FSunny.7 mph39%30.24 "Hg10 mi
8:20 PM81 °FSunny.7 mph37%30.21 "Hg10 mi
7:50 PM82 °FSunny.8 mph32%30.21 "Hg10 mi
7:20 PM84 °FSunny.10 mph31%30.21 "Hg10 mi
6:50 PM84 °FPassing clouds.8 mph31%30.21 "HgN/A
6:20 PM84 °FPassing clouds.9 mph31%30.24 "HgN/A
5:50 PM86 °FSunny.12 mph29%30.21 "Hg10 mi
5:20 PM86 °FPassing clouds.12 mph29%30.21 "HgN/A
4:50 PM84 °FSunny.14 mph31%30.21 "Hg10 mi
4:20 PM86 °FPassing clouds.12 mph29%30.24 "HgN/A
3:50 PM84 °FPassing clouds.14 mph29%30.24 "HgN/A
3:20 PM84 °FPassing clouds.12 mph29%30.24 "HgN/A
2:50 PM84 °FPassing clouds.14 mph29%30.24 "HgN/A
2:20 PM84 °FPassing clouds.13 mph31%30.24 "HgN/A
1:50 PM84 °FPassing clouds.14 mph29%30.24 "HgN/A
1:20 PM84 °FPassing clouds.14 mph29%30.27 "HgN/A
Weather by CustomWeather, © 2015

See weather overviewHow to use our weather pages